{"data":{"norad_id":32060,"intl_designator":"2007-041A","name":"WORLDVIEW-1 (WV-1)","alt_names":[],"object_type":"PAYLOAD","status":"ACTIVE","operator":null,"country":"US","launch_date":"2007-09-18","launch_site_code":"AFWTR","launch_vehicle":null,"mission":null,"orbit_class":"UNKNOWN","rcs_meters":5.48,"size_class":null,"mass_kg":null,"dimensions":null,"purposes":["earth_obs"],"wikipedia_slug":null,"has_3d_model":false,"image_url":null,"decayed_at":null,"tle_current":{"epoch":"2026-09-19T22:39:18.250272Z","epoch_age_seconds":62404,"freshness":"FRESH","line1":"1 32060U 07041A   26262.94396123  .00004114  00000+0  16947-3 0  9997","line2":"2 32060  97.3870  21.3354 0001932  88.1596 271.9863 15.24652958 57316","mean_motion":15.24652958,"eccentricity":0.0001932,"inclination_deg":97.387,"raan_deg":21.3354,"arg_perigee_deg":88.1596,"mean_anomaly_deg":271.9863,"bstar":0.00016947,"rev_number":5731,"period_min":94.447722837134,"perigee_km":490.50045459967,"apogee_km":493.15500897203,"semimajor_km":6869.9647317859,"source":"CELESTRAK","updated_at":"2026-09-20T09:00:33.886993Z"}}}